Погода в Осьмине

Россия / Санкт-Петербург и Ленинградская область     59°00′46″N   29°04′59″E
темп.,
°C
ветер,
м/с
пор.,
м/с
влажн.,
%
обл.,
%
осадки,
мм/ч
давл.,
гПа
погр.,
м
27 января, ср
ср2700:000в499796 0.1 997607
03:000всв379793 0.2 996395
06:000в2598100 0.2 996331
09:00−3в119585 0.4 99628
12:00−2в119226 0.0 998155
15:00−1юз118731 0.0 999311
18:00−3ююз119528 0.0 100021
21:00−3ю129732 0.0 100132
28 января, чт
чт2800:00−4ю129674 0.0 100325
03:00−4ююв129665 0.0 100327
06:00−4ююв229576 0.0 100437
09:00−4юв129775 0.0 100425
12:00−2юв249469 0.0 1004241
15:00−1юв249084 0.1 1004379
18:00−3вюв2597100 0.1 1003159
21:00−3в2497100 0.1 1002197
29 января, пт
пт2900:00−3в2497100 0.1 1001164
03:00−3всв2497100 0.4 998200
06:00−2всв2696100 0.6 996313
09:00−3св2596100 1.2 994269
12:00−3св2493100 0.3 993331
15:00−2ссв2492100 0.8 991354
18:00−3ссз1298100 0.5 99063
21:00−4зюз1197100 0.6 98931
30 января, сб
сб3000:00−4юз1296100 0.1 98893
03:00−5ююз1297100 0.1 98746
06:00−6ю229788 0.1 98671
09:00−6ю239785 0.3 985111
12:00−4ююз249295 0.2 986318
15:00−4ююз259198 0.5 985435
18:00−5ю2596100 0.3 986271
21:00−5ююв1396100 0.4 986162
31 января, вс
вс3100:00−5юв1397100 0.3 986127
03:00−5юв2695100 0.6 986354
06:00−6ююв2595100 0.2 985229
09:00−6юв1296100 0.4 98661
12:00−4вюв129195 0.2 987236
15:00−4зсз018996 0.6 987288
18:00−5з2496100 0.4 989162
21:00−6зюз259696 0.6 990172